Date String (YYYY-MM-DD hh:mm:ss) UTC,Instrument flags,absolute air pressure of the measurement (hPa),sample flow rate (lpm),inlet stack bypass flow (lpm),air temperature of the measurement (°C),ambient temperature measured by the external sensor (°C),aerosol sample conditioner tube jacket temperature (°C),OPC LED temperature (°C),internal box temperature (°C),relative humidity of the measurement (%),span deviation,mass concentration of particles derived from Lorenz-Mie calculation of OPC scattering (μg/m³),mass concentration of particles derived from Lorenz-Mie calculation of OPC scattering (μg/m³),mass concentration of particles derived from Lorenz-Mie calculation of OPC scattering (μg/m³)
DateTimeUTC,F1_M11,P_M11,Q1_M11,Q2_M11,T1_M11,T2_M11,T3_M11,T4_M11,T5_M11,U1_M11,ZSPAN_M11,X2_M11,X0_M11,X1_M11
2023-12-30 18:00:00,SystemResetWarning,0830.0,5.00,000.00,023.0,022.4,000.0,031.1,024.5,9.8,0000.0,0004.33,0007.68,0004.02
2023-12-30 18:01:00,SystemResetWarning,0830.0,5.01,000.00,023.0,022.4,000.0,031.1,024.5,9.8,0000.0,0004.34,0007.86,0004.03
2023-12-30 18:02:00,SystemResetWarning,0830.0,5.01,000.00,023.0,022.4,000.0,031.1,024.5,9.8,0000.0,0004.32,0007.83,0004.02
2023-12-30 18:03:00,SystemResetWarning,0830.0,5.01,000.00,023.0,022.4,000.0,031.1,024.5,9.8,0000.0,0004.30,0007.75,0004.02
2023-12-30 18:04:00,SystemResetWarning,0830.0,5.00,000.00,023.0,022.4,000.0,031.2,024.5,9.9,0000.0,0004.32,0007.78,0004.02
2023-12-30 18:05:00,SystemResetWarning,0830.0,5.00,000.00,023.1,022.5,000.0,031.2,024.6,9.7,0000.0,0004.29,0007.83,0004.02
2023-12-30 18:06:00,SystemResetWarning,0829.9,5.00,000.00,023.1,022.5,000.0,031.2,024.6,9.4,0000.0,0004.30,0007.71,0004.04
2023-12-30 18:07:00,SystemResetWarning,0829.9,5.00,000.00,023.1,022.5,000.0,031.2,024.6,9.4,0000.0,0004.31,0007.48,0004.06
2023-12-30 18:08:00,SystemResetWarning,0829.8,4.99,000.00,023.1,022.5,000.0,031.2,024.6,9.6,0000.0,0004.34,0007.47,0004.08
2023-12-30 18:09:00,SystemResetWarning,0829.9,5.00,000.00,023.1,022.5,000.0,031.3,024.7,9.7,0000.0,0004.42,0008.10,0004.11
2023-12-30 18:10:00,SystemResetWarning,0829.8,5.00,000.00,023.1,022.5,000.0,031.3,024.7,9.7,0000.0,0004.45,0008.18,0004.15
2023-12-30 18:11:00,SystemResetWarning,0829.8,5.00,000.00,023.1,022.6,000.0,031.3,024.7,9.3,0000.0,0004.51,0008.36,0004.19
2023-12-30 18:12:00,SystemResetWarning,0829.8,5.00,000.00,023.2,022.6,000.0,031.3,024.8,9.2,0000.0,0004.58,0008.50,0004.23
2023-12-30 18:13:00,SystemResetWarning,0829.8,5.01,000.00,023.2,022.6,000.0,031.3,024.8,9.1,0000.0,0004.66,0008.81,0004.29
2023-12-30 18:14:00,SystemResetWarning,0829.7,5.01,000.00,023.2,022.6,000.0,031.3,024.8,9.3,0000.0,0004.74,0009.70,0004.35
2023-12-30 18:15:00,SystemResetWarning,0829.7,5.01,000.00,023.2,022.6,000.0,031.4,024.8,9.4,0000.0,0004.82,0010.65,0004.43
2023-12-30 18:16:00,SystemResetWarning,0829.7,5.01,000.00,023.3,022.7,000.0,031.4,024.8,9.1,0000.0,0004.92,0011.25,0004.49
2023-12-30 18:17:00,SystemResetWarning,0829.7,4.99,000.00,023.3,022.7,000.0,031.4,024.9,9.0,0000.0,0004.98,0011.25,0004.53
2023-12-30 18:18:00,SystemResetWarning,0829.7,4.99,000.00,023.3,022.7,000.0,031.4,024.9,8.8,0000.0,0005.04,0011.35,0004.57
2023-12-30 18:19:00,SystemResetWarning,0829.7,5.00,000.00,023.3,022.7,000.0,031.4,024.9,8.8,0000.0,0005.09,0011.40,0004.63
2023-12-30 18:20:00,SystemResetWarning,0829.7,5.00,000.00,023.3,022.7,000.0,031.5,024.9,8.9,0000.0,0005.13,0010.93,0004.67
2023-12-30 18:21:00,SystemResetWarning,0829.7,5.00,000.00,023.4,022.8,000.0,031.5,024.9,9.1,0000.0,0005.14,0011.16,0004.69
2023-12-30 18:22:00,SystemResetWarning,0829.7,5.00,000.00,023.4,022.8,000.0,031.5,024.9,9.1,0000.0,0005.13,0011.00,0004.68
2023-12-30 18:23:00,SystemResetWarning,0829.7,5.00,000.00,023.4,022.8,000.0,031.5,025.0,9.1,0000.0,0005.11,0010.83,0004.66
2023-12-30 18:24:00,SystemResetWarning,0829.6,5.00,000.00,023.4,022.8,000.0,031.5,025.0,9.1,0000.0,0005.12,0011.57,0004.65
2023-12-30 18:25:00,SystemResetWarning,0829.6,4.99,000.00,023.4,022.9,000.0,031.6,025.0,9.0,0000.0,0005.10,0011.02,0004.62
2023-12-30 18:26:00,SystemResetWarning,0829.6,4.99,000.00,023.5,022.9,000.0,031.6,025.0,9.2,0000.0,0005.02,0009.95,0004.57
2023-12-30 18:27:00,SystemResetWarning,0829.6,5.00,000.00,023.5,022.9,000.0,031.6,025.0,9.2,0000.0,0004.93,0009.26,0004.52
2023-12-30 18:28:00,SystemResetWarning,0829.6,5.00,000.00,023.5,022.9,000.0,031.6,025.0,9.2,0000.0,0004.85,0009.01,0004.49
2023-12-30 18:29:00,SystemResetWarning,0829.6,5.00,000.00,023.5,022.9,000.0,031.6,025.1,9.3,0000.0,0004.79,0008.90,0004.45
2023-12-30 18:30:00,SystemResetWarning,0829.6,5.00,000.00,023.5,022.9,000.0,031.6,025.1,9.4,0000.0,0004.74,0009.06,0004.41
2023-12-30 18:31:00,SystemResetWarning,0829.5,5.00,000.00,023.5,023.0,000.0,031.7,025.1,9.3,0000.0,0004.73,0009.39,0004.38
2023-12-30 18:32:00,SystemResetWarning,0829.4,5.01,000.00,023.6,023.0,000.0,031.7,025.1,9.2,0000.0,0004.72,0009.29,0004.37
2023-12-30 18:33:00,SystemResetWarning,0829.4,5.01,000.00,023.6,023.0,000.0,031.7,025.1,9.3,0000.0,0004.73,0009.46,0004.40
2023-12-30 18:34:00,SystemResetWarning,0829.3,5.00,000.00,023.6,023.0,000.0,031.7,025.1,9.4,0000.0,0004.75,0009.70,0004.42
2023-12-30 18:35:00,SystemResetWarning,0829.4,4.98,000.00,023.6,023.1,000.0,031.7,025.2,9.3,0000.0,0004.76,0009.04,0004.44
2023-12-30 18:36:00,SystemResetWarning,0829.3,5.02,000.00,023.7,023.1,000.0,031.8,025.2,9.3,0000.0,0004.77,0008.70,0004.46
2023-12-30 18:37:00,SystemResetWarning,0829.3,4.99,000.00,023.7,023.1,000.0,031.8,025.2,9.4,0000.0,0004.82,0008.76,0004.49
2023-12-30 18:38:00,SystemResetWarning,0829.3,4.99,000.00,023.7,023.1,000.0,031.8,025.2,9.3,0000.0,0004.90,0008.96,0004.54
2023-12-30 18:39:00,SystemResetWarning,0829.4,4.99,000.00,023.7,023.1,000.0,031.8,025.2,9.1,0000.0,0004.97,0009.27,0004.56
2023-12-30 18:40:00,SystemResetWarning,0829.4,5.01,000.00,023.7,023.2,000.0,031.8,025.3,9.1,0000.0,0005.04,0009.67,0004.60
2023-12-30 18:41:00,SystemResetWarning,0829.3,5.01,000.00,023.8,023.2,000.0,031.9,025.2,8.9,0000.0,0005.12,0009.74,0004.63
2023-12-30 18:42:00,SystemResetWarning,0829.4,5.01,000.00,023.8,023.2,000.0,031.9,025.3,8.9,0000.0,0005.13,0009.51,0004.65
2023-12-30 18:43:00,SystemResetWarning,0829.4,4.99,000.00,023.8,023.2,000.0,031.9,025.3,8.9,0000.0,0005.11,0010.26,0004.64
2023-12-30 18:44:00,SystemResetWarning,0829.3,5.00,000.00,023.8,023.2,000.0,031.9,025.3,8.9,0000.0,0005.13,0010.79,0004.64
2023-12-30 18:45:00,SystemResetWarning,0829.4,4.99,000.00,023.8,023.2,000.0,031.9,025.4,8.9,0000.0,0005.14,0010.70,0004.64
2023-12-30 18:46:00,SystemResetWarning,0829.4,5.00,000.00,023.8,023.3,000.0,032.0,025.4,8.8,0000.0,0005.12,0010.79,0004.62
2023-12-30 18:47:00,SystemResetWarning,0829.3,5.01,000.00,023.9,023.3,000.0,032.0,025.4,8.9,0000.0,0005.13,0010.83,0004.60
2023-12-30 18:48:00,SystemResetWarning,0829.4,5.00,000.00,023.9,023.3,000.0,032.0,025.5,8.9,0000.0,0005.10,0010.87,0004.57
2023-12-30 18:49:00,SystemResetWarning,0829.3,5.00,000.00,023.9,023.3,000.0,032.0,025.5,8.8,0000.0,0005.07,0011.42,0004.55
2023-12-30 18:50:00,SystemResetWarning,0829.2,5.00,000.00,023.9,023.3,000.0,032.0,025.5,8.8,0000.0,0005.04,0012.50,0004.53
2023-12-30 18:51:00,SystemResetWarning,0829.2,5.00,000.00,024.0,023.4,000.0,032.1,025.5,8.8,0000.0,0005.02,0012.25,0004.51
2023-12-30 18:52:00,SystemResetWarning,0829.2,4.99,000.00,024.0,023.4,000.0,032.1,025.5,8.8,0000.0,0004.97,0012.31,0004.48
2023-12-30 18:53:00,SystemResetWarning,0829.2,5.00,000.00,024.0,023.4,000.0,032.1,025.5,9.0,0000.0,0004.94,0012.18,0004.46
2023-12-30 18:54:00,SystemResetWarning,0829.2,4.99,000.00,024.0,023.4,000.0,032.1,025.5,9.1,0000.0,0004.93,0011.46,0004.44
2023-12-30 18:55:00,SystemResetWarning,0829.2,5.00,000.00,024.0,023.5,000.0,032.1,025.6,9.0,0000.0,0004.92,0010.57,0004.41
2023-12-30 18:56:00,SystemResetWarning,0829.1,5.01,000.00,024.1,023.5,000.0,032.2,025.6,8.8,0000.0,0004.86,0010.55,0004.38
2023-12-30 18:57:00,SystemResetWarning,0829.1,5.01,000.00,024.1,023.5,000.0,032.2,025.6,8.7,0000.0,0004.85,0010.66,0004.37
2023-12-30 18:58:00,SystemResetWarning,0829.1,5.01,000.00,024.1,023.5,000.0,032.2,025.6,8.6,0000.0,0004.80,0010.54,0004.35
2023-12-30 18:59:00,SystemResetWarning,0829.1,5.00,000.00,024.1,023.5,000.0,032.2,025.7,8.5,0000.0,0004.78,0010.47,0004.33
